2016-07-13 00:03:38 r, 19.88m,0000000001Hz,0000485605c,0000001.054s, 029.0C,00002191
2016-07-13 00:13:37 r, 19.82m,0000000001Hz,0000460872c,0000001.000s, 029.0C,00002191
2016-07-13 00:23:37 r, 19.93m,0000000001Hz,0000513414c,0000001.114s, 029.0C,00002191
2016-07-13 00:33:37 r, 19.95m,0000000001Hz,0000521470c,0000001.132s, 029.0C,00002191
2016-07-13 00:43:37 r, 19.89m,0000000001Hz,0000493345c,0000001.071s, 029.0C,00002191
2016-07-13 00:53:37 r, 19.97m,0000000001Hz,0000530028c,0000001.150s, 029.0C,00002191
2016-07-13 01:03:37 r, 20.06m,0000000001Hz,0000578816c,0000001.256s, 029.0C,00002191
2016-07-13 01:13:37 r, 20.23m,0000000000Hz,0000672750c,0000001.460s, 029.0C,00002191
2016-07-13 01:23:37 r, 20.27m,0000000000Hz,0000702742c,0000001.525s, 029.0C,00002191
2016-07-13 01:33:37 r, 20.42m,0000000000Hz,0000804451c,0000001.746s, 029.0C,00002191
2016-07-13 01:43:37 r, 20.54m,0000000000Hz,0000899169c,0000001.951s, 029.3C,00002191
2016-07-13 01:53:37 r, 20.34m,0000000000Hz,0000748350c,0000001.624s, 029.3C,00002191
2016-07-13 02:03:37 r, 20.31m,0000000000Hz,0000722021c,0000001.567s, 029.3C,00002191
2016-07-13 02:13:37 r, 20.36m,0000000001Hz,0000760182c,0000001.650s, 029.3C,00002191
2016-07-13 02:23:37 r, 20.27m,0000000001Hz,0000699778c,0000001.519s, 029.3C,00002191
2016-07-13 02:33:37 r, 20.35m,0000000001Hz,0000754567c,0000001.638s, 029.3C,00002191
2016-07-13 02:43:37 r, 20.27m,0000000001Hz,0000702384c,0000001.524s, 029.0C,00002191
2016-07-13 02:53:37 r, 20.18m,0000000001Hz,0000644132c,0000001.398s, 029.0C,00002191
2016-07-13 03:03:37 r, 20.00m,0000000001Hz,0000545343c,0000001.183s, 029.0C,00002191
2016-07-13 03:13:37 r, 20.01m,0000000001Hz,0000550964c,0000001.196s, 029.0C,00002191
2016-07-13 03:23:37 r, 20.07m,0000000001Hz,0000584441c,0000001.268s, 029.0C,00002191
2016-07-13 03:33:37 r, 19.95m,0000000001Hz,0000521478c,0000001.132s, 029.0C,00002191
2016-07-13 03:43:37 r, 19.85m,0000000001Hz,0000473163c,0000001.027s, 029.0C,00002191
2016-07-13 03:53:37 r, 19.57m,0000000001Hz,0000368608c,0000000.800s, 029.0C,00002191
2016-07-13 04:03:37 r, 19.05m,0000000002Hz,0000227640c,0000000.494s, 029.0C,00002191
2016-07-13 04:13:37 r, 18.66m,0000000003Hz,0000160340c,0000000.348s, 029.0C,00002191
2016-07-13 04:23:37 r, 17.49m,0000000009Hz,0000054092c,0000000.117s, 029.0C,00002191
2016-07-13 04:33:38 r, 16.50m,0000000021Hz,0000021847c,0000000.047s, 029.0C,00002191
2016-07-13 04:43:37 r, 14.94m,0000000089Hz,0000005200c,0000000.011s, 029.0C,00002191
2016-07-13 04:53:37 r, 14.02m,0000000208Hz,0000000000c,0000000.000s, 029.0C,00002191
2016-07-13 05:03:38 r, 12.66m,0000000729Hz,0000000000c,0000000.000s, 029.0C,00002191
2016-07-13 05:13:37 r, 11.15m,0000002914Hz,0000000000c,0000000.000s, 028.6C,00002191
2016-07-13 05:23:37 r, 09.95m,0000008935Hz,0000000000c,0000000.000s, 028.6C,00002191
2016-07-13 05:33:37 r, 09.00m,0000021189Hz,0000000000c,0000000.000s, 029.0C,00002191
2016-07-13 05:43:38 r, 08.36m,0000038443Hz,0000000000c,0000000.000s, 029.0C,00002191
2016-07-13 05:53:37 r, 07.68m,0000071719Hz,0000000000c,0000000.000s, 028.6C,00002191
2016-07-13 06:03:37 r, 07.11m,0000121090Hz,0000000000c,0000000.000s, 028.6C,00002191
2016-07-13 06:13:37 r, 06.44m,0000224246Hz,0000000000c,0000000.000s, 028.3C,00002191
2016-07-13 06:23:37 r, 06.40m,0000231490Hz,0000000000c,0000000.000s, 028.6C,00002191
2016-07-13 06:33:37 r, 06.39m,0000236080Hz,0000000000c,0000000.000s, 028.6C,00002191
2016-07-13 06:43:37 r, 05.87m,0000377369Hz,0000000000c,0000000.000s, 028.3C,00002191
2016-07-13 06:53:37 r, 05.96m,0000350079Hz,0000000000c,0000000.000s, 028.3C,00002191
2016-07-13 07:03:37 r, 00.00m,0000595694Hz,0000000000c,0000000.000s, 028.3C,00002191
2016-07-13 07:13:37 r, 00.00m,0000528659Hz,0000000000c,0000000.000s, 028.0C,00002191
2016-07-13 07:23:37 r, 00.00m,0000595829Hz,0000000000c,0000000.000s, 028.3C,00002191
2016-07-13 07:33:37 r, 00.00m,0000595857Hz,0000000000c,0000000.000s, 028.3C,00002191
2016-07-13 07:43:40 r, 00.00m,0000595737Hz,0000000000c,0000000.000s, 028.3C,00002191
2016-07-13 07:53:37 r, 00.00m,0000595752Hz,0000000000c,0000000.000s, 028.3C,00002191
2016-07-13 08:03:37 r, 00.00m,0000595781Hz,0000000000c,0000000.000s, 028.6C,00002191
2016-07-13 08:13:37 r, 00.00m,0000595723Hz,0000000000c,0000000.000s, 028.6C,00002191
2016-07-13 08:23:37 r, 00.00m,0000595624Hz,0000000000c,0000000.000s, 028.6C,00002191
2016-07-13 08:33:37 r, 00.00m,0000595683Hz,0000000000c,0000000.000s, 029.0C,00002191
2016-07-13 08:43:37 r, 00.00m,0000595716Hz,0000000000c,0000000.000s, 029.0C,00002191
2016-07-13 08:53:38 r, 00.00m,0000595528Hz,0000000000c,0000000.000s, 029.9C,00002191
2016-07-13 09:03:37 r, 00.00m,0000595416Hz,0000000000c,0000000.000s, 030.2C,00002191
2016-07-13 09:13:37 r, 00.00m,0000595428Hz,0000000000c,0000000.000s, 029.9C,00002191
2016-07-13 09:23:37 r, 00.00m,0000595472Hz,0000000000c,0000000.000s, 029.9C,00002191
2016-07-13 09:33:37 r, 00.00m,0000595476Hz,0000000000c,0000000.000s, 030.2C,00002191
2016-07-13 09:43:40 r, 00.00m,0000595435Hz,0000000000c,0000000.000s, 030.6C,00002191
2016-07-13 09:53:47 r, 00.00m,0000595282Hz,0000000000c,0000000.000s, 030.9C,00002191
2016-07-13 10:03:38 r, 00.00m,0000595325Hz,0000000000c,0000000.000s, 031.2C,00002191
2016-07-13 10:13:37 r, 00.00m,0000595352Hz,0000000000c,0000000.000s, 030.9C,00002191
2016-07-13 10:23:37 r, 00.00m,0000595421Hz,0000000000c,0000000.000s, 031.2C,00002191
2016-07-13 10:33:40 r, 00.00m,0000595269Hz,0000000000c,0000000.000s, 031.2C,00002191
2016-07-13 10:43:46 r, 00.00m,0000595201Hz,0000000000c,0000000.000s, 032.2C,00002191
2016-07-13 10:53:41 r, 00.00m,0000595173Hz,0000000000c,0000000.000s, 033.5C,00002191
2016-07-13 11:03:46 r, 00.00m,0000595201Hz,0000000000c,0000000.000s, 033.1C,00002191
2016-07-13 11:13:37 r, 00.00m,0000595209Hz,0000000000c,0000000.000s, 033.5C,00002191
2016-07-13 11:33:06 r, 00.00m,0000595189Hz,0000000000c,0000000.000s, 032.2C,00002191
2016-07-13 11:43:12 r, 00.00m,0000595252Hz,0000000000c,0000000.000s, 032.2C,00002191
2016-07-13 11:53:10 r, 00.00m,0000595239Hz,0000000000c,0000000.000s, 031.9C,00002191
2016-07-13 12:03:06 r, 00.00m,0000595167Hz,0000000000c,0000000.000s, 032.5C,00002191
2016-07-13 12:13:06 r, 00.00m,0000595181Hz,0000000000c,0000000.000s, 033.1C,00002191
2016-07-13 12:23:08 r, 00.00m,0000595185Hz,0000000000c,0000000.000s, 033.1C,00002191
2016-07-13 12:33:07 r, 00.00m,0000595197Hz,0000000000c,0000000.000s, 033.5C,00002191
2016-07-13 12:43:06 r, 00.00m,0000595188Hz,0000000000c,0000000.000s, 033.1C,00002191
2016-07-13 12:53:07 r, 00.00m,0000594909Hz,0000000000c,0000000.000s, 034.4C,00002191
2016-07-13 13:03:06 r, 00.00m,0000594888Hz,0000000000c,0000000.000s, 035.1C,00002191
2016-07-13 13:13:07 r, 00.00m,0000594752Hz,0000000000c,0000000.000s, 034.8C,00002191
2016-07-13 13:23:11 r, 00.00m,0000594941Hz,0000000000c,0000000.000s, 035.1C,00002191
2016-07-13 13:33:07 r, 00.00m,0000594808Hz,0000000000c,0000000.000s, 035.4C,00002191
2016-07-13 13:43:07 r, 00.00m,0000594680Hz,0000000000c,0000000.000s, 035.7C,00002191
2016-07-13 13:53:06 r, 00.00m,0000594725Hz,0000000000c,0000000.000s, 036.0C,00002191
2016-07-13 14:03:06 r, 00.00m,0000594875Hz,0000000000c,0000000.000s, 035.4C,00002191
2016-07-13 14:13:07 r, 00.00m,0000594951Hz,0000000000c,0000000.000s, 034.8C,00002191
2016-07-13 14:23:06 r, 00.00m,0000594927Hz,0000000000c,0000000.000s, 034.4C,00002191
2016-07-13 14:33:06 r, 00.00m,0000594964Hz,0000000000c,0000000.000s, 034.4C,00002191
2016-07-13 14:43:06 r, 00.00m,0000595113Hz,0000000000c,0000000.000s, 033.8C,00002191
2016-07-13 14:53:06 r, 00.00m,0000595019Hz,0000000000c,0000000.000s, 033.5C,00002191
2016-07-13 15:03:06 r, 00.00m,0000595133Hz,0000000000c,0000000.000s, 033.8C,00002191
2016-07-13 15:13:06 r, 00.00m,0000595118Hz,0000000000c,0000000.000s, 034.1C,00002191
2016-07-13 15:23:06 r, 00.00m,0000595070Hz,0000000000c,0000000.000s, 034.1C,00002191
2016-07-13 15:33:07 r, 00.00m,0000594992Hz,0000000000c,0000000.000s, 034.1C,00002191
2016-07-13 15:43:10 r, 00.00m,0000595169Hz,0000000000c,0000000.000s, 033.5C,00002191
2016-07-13 15:53:13 r, 00.00m,0000595182Hz,0000000000c,0000000.000s, 033.1C,00002191
2016-07-13 16:03:07 r, 00.00m,0000595202Hz,0000000000c,0000000.000s, 032.8C,00002191
2016-07-13 16:13:06 r, 00.00m,0000595198Hz,0000000000c,0000000.000s, 032.5C,00002191
2016-07-13 16:23:07 r, 00.00m,0000595191Hz,0000000000c,0000000.000s, 032.8C,00002191
2016-07-13 16:33:06 r, 00.00m,0000595035Hz,0000000000c,0000000.000s, 034.1C,00002191
2016-07-13 16:43:06 r, 00.00m,0000595020Hz,0000000000c,0000000.000s, 034.4C,00002191
2016-07-13 16:53:07 r, 00.00m,0000594936Hz,0000000000c,0000000.000s, 034.8C,00002191
2016-07-13 17:03:06 r, 00.00m,0000594840Hz,0000000000c,0000000.000s, 035.1C,00002191
2016-07-13 17:13:08 r, 00.00m,0000594883Hz,0000000000c,0000000.000s, 035.7C,00002191
2016-07-13 17:23:06 r, 00.00m,0000594798Hz,0000000000c,0000000.000s, 036.0C,00002191
2016-07-13 17:33:06 r, 00.00m,0000594674Hz,0000000000c,0000000.000s, 036.0C,00002191
2016-07-13 17:43:07 r, 00.00m,0000594747Hz,0000000000c,0000000.000s, 036.0C,00002191
2016-07-13 17:53:06 r, 00.00m,0000594819Hz,0000000000c,0000000.000s, 035.7C,00002191
2016-07-13 18:03:07 r, 00.00m,0000594801Hz,0000000000c,0000000.000s, 035.4C,00002191
2016-07-13 18:13:07 r, 00.00m,0000595051Hz,0000000000c,0000000.000s, 033.8C,00002191
2016-07-13 18:23:07 r, 00.00m,0000595211Hz,0000000000c,0000000.000s, 032.5C,00002191
2016-07-13 18:33:07 r, 00.00m,0000595230Hz,0000000000c,0000000.000s, 032.2C,00002191
2016-07-13 18:43:07 r, 00.00m,0000595405Hz,0000000000c,0000000.000s, 031.5C,00002191
2016-07-13 18:53:06 r, 00.00m,0000595339Hz,0000000000c,0000000.000s, 031.9C,00002191
2016-07-13 19:03:06 r, 00.00m,0000595236Hz,0000000000c,0000000.000s, 031.9C,00002191
2016-07-13 19:13:07 r, 00.00m,0000595305Hz,0000000000c,0000000.000s, 031.5C,00002191
2016-07-13 19:23:07 r, 00.00m,0000595296Hz,0000000000c,0000000.000s, 031.2C,00002191
2016-07-13 19:33:06 r, 00.00m,0000595417Hz,0000000000c,0000000.000s, 031.2C,00002191
2016-07-13 19:43:08 r, 00.00m,0000595364Hz,0000000000c,0000000.000s, 030.9C,00002191
2016-07-13 19:53:07 r, 00.00m,0000595317Hz,0000000000c,0000000.000s, 030.9C,00002191
2016-07-13 20:03:07 r, 00.00m,0000595468Hz,0000000000c,0000000.000s, 030.6C,00002191
2016-07-13 20:13:06 r, 00.00m,0000595536Hz,0000000000c,0000000.000s, 029.9C,00002191
2016-07-13 20:23:07 r, 00.00m,0000595503Hz,0000000000c,0000000.000s, 030.2C,00002191
2016-07-13 20:33:06 r, 05.90m,0000368452Hz,0000000000c,0000000.000s, 029.9C,00002191
2016-07-13 20:43:06 r, 00.00m,0000595653Hz,0000000000c,0000000.000s, 029.3C,00002191
2016-07-13 20:53:07 r, 00.00m,0000595623Hz,0000000000c,0000000.000s, 029.3C,00002191
2016-07-13 21:03:06 r, 06.13m,0000301033Hz,0000000000c,0000000.000s, 029.0C,00002191
2016-07-13 21:13:07 r, 06.59m,0000196471Hz,0000000000c,0000000.000s, 028.6C,00002191
2016-07-13 21:23:06 r, 07.49m,0000085843Hz,0000000000c,0000000.000s, 028.3C,00002191
2016-07-13 21:33:06 r, 08.67m,0000028723Hz,0000000000c,0000000.000s, 028.0C,00002191
2016-07-13 21:43:07 r, 09.26m,0000016695Hz,0000000000c,0000000.000s, 028.0C,00002191
2016-07-13 21:53:06 r, 11.14m,0000002958Hz,0000000000c,0000000.000s, 028.0C,00002191
2016-07-13 22:03:07 r, 12.71m,0000000698Hz,0000000000c,0000000.000s, 027.7C,00002191
2016-07-13 22:13:06 r, 14.41m,0000000145Hz,0000000000c,0000000.000s, 027.7C,00002191
2016-07-13 22:23:06 r, 15.62m,0000000048Hz,0000009680c,0000000.021s, 027.7C,00002191
2016-07-13 22:33:07 r, 16.71m,0000000017Hz,0000026568c,0000000.058s, 027.7C,00002191
2016-07-13 22:43:07 r, 17.58m,0000000008Hz,0000058686c,0000000.127s, 027.3C,00002191
2016-07-13 22:53:07 r, 18.18m,0000000004Hz,0000102743c,0000000.223s, 027.3C,00002191
2016-07-13 23:03:08 r, 18.68m,0000000003Hz,0000163796c,0000000.355s, 027.0C,00002191
2016-07-13 23:13:06 r, 19.01m,0000000003Hz,0000220669c,0000000.479s, 027.0C,00002191
2016-07-13 23:23:07 r, 19.22m,0000000002Hz,0000267898c,0000000.581s, 027.0C,00002191
2016-07-13 23:33:06 r, 19.16m,0000000002Hz,0000253539c,0000000.550s, 026.7C,00002191
2016-07-13 23:43:07 r, 19.48m,0000000001Hz,0000337008c,0000000.731s, 026.7C,00002191
2016-07-13 23:53:07 r, 19.52m,0000000002Hz,0000351257c,0000000.762s, 026.4C,00002191
